AAL119 KPBI-KMIA

Flight info

Callsign AAL119
Flight time 0h 22m
Altitude 11000
Route DCT SPNER/N0351F100 DCT VKZ DCT
Aircraft A320/M-VGDW/C

Departure

Time 2026-04-17 22:16
Airport Palm Beach International Airport (KPBI)

Arrival

Time 2026-04-17 22:38
Airport Miami International Airport (KMIA)
Time Latitude Longitude Altitude Speed Heading
2026-04-17 22:06 26.68679 -80.09238 29 ft 0 kts 316°
2026-04-17 22:11 26.68678 -80.09237 29 ft 1 kts 316°
2026-04-17 22:11 26.68665 -80.09224 28 ft 3 kts 309°
2026-04-17 22:12 26.68654 -80.09206 28 ft 3 kts 297°
2026-04-17 22:12 26.68646 -80.09185 27 ft 3 kts 279°
2026-04-17 22:12 26.68645 -80.09164 27 ft 3 kts 250°
2026-04-17 22:12 26.68651 -80.09151 27 ft 1 kts 227°
2026-04-17 22:13 26.68652 -80.09150 27 ft 0 kts 227°
2026-04-17 22:13 26.68631 -80.09191 27 ft 30 kts 246°
2026-04-17 22:14 26.68611 -80.09590 29 ft 55 kts 278°
2026-04-17 22:14 26.68613 -80.09991 32 ft 50 kts 263°
2026-04-17 22:14 26.68572 -80.10362 30 ft 46 kts 261°
2026-04-17 22:14 26.68519 -80.10680 23 ft 38 kts 248°
2026-04-17 22:15 26.68402 -80.10822 21 ft 18 kts 192°
2026-04-17 22:15 26.68314 -80.10767 22 ft 16 kts 103°
2026-04-17 22:15 26.68303 -80.10423 26 ft 81 kts 93°
2026-04-17 22:15 26.68265 -80.09548 31 ft 142 kts 93°
2026-04-17 22:16 26.68207 -80.08311 267 ft 168 kts 94°
2026-04-17 22:16 26.68148 -80.06991 939 ft 171 kts 93°
2026-04-17 22:16 26.68084 -80.05655 1671 ft 173 kts 98°
2026-04-17 22:16 26.67548 -80.04406 2083 ft 192 kts 138°
2026-04-17 22:17 26.66286 -80.03758 2394 ft 213 kts 174°
2026-04-17 22:17 26.64735 -80.03666 2811 ft 235 kts 178°
2026-04-17 22:17 26.63020 -80.03572 3290 ft 257 kts 178°
2026-04-17 22:17 26.61199 -80.03464 4104 ft 266 kts 177°
2026-04-17 22:18 26.59331 -80.03345 5013 ft 271 kts 177°
2026-04-17 22:18 26.57436 -80.03220 5898 ft 275 kts 177°
2026-04-17 22:18 26.55507 -80.03089 6763 ft 279 kts 177°
2026-04-17 22:18 26.53580 -80.02954 7587 ft 283 kts 176°
2026-04-17 22:19 26.51594 -80.02813 8390 ft 287 kts 176°
2026-04-17 22:19 26.49588 -80.02670 9158 ft 292 kts 176°
2026-04-17 22:19 26.47545 -80.02525 9906 ft 295 kts 176°
2026-04-17 22:19 26.45427 -80.02377 10248 ft 315 kts 176°
2026-04-17 22:20 26.43138 -80.02247 10704 ft 343 kts 180°
2026-04-17 22:20 26.40649 -80.02475 10881 ft 373 kts 187°
2026-04-17 22:20 26.37971 -80.02836 10919 ft 399 kts 187°
2026-04-17 22:20 26.35173 -80.03217 10919 ft 421 kts 187°
2026-04-17 22:21 26.32241 -80.03617 10977 ft 420 kts 187°
2026-04-17 22:21 26.29374 -80.04006 10883 ft 409 kts 187°
2026-04-17 22:21 26.26528 -80.04386 10879 ft 414 kts 187°
2026-04-17 22:21 26.23670 -80.04764 10452 ft 412 kts 187°
2026-04-17 22:22 26.20828 -80.05137 10290 ft 411 kts 187°
2026-04-17 22:22 26.18022 -80.05504 10107 ft 410 kts 187°
2026-04-17 22:22 26.15188 -80.05877 9925 ft 408 kts 187°
2026-04-17 22:22 26.12376 -80.06252 9264 ft 408 kts 187°
2026-04-17 22:23 26.09594 -80.06622 8602 ft 390 kts 187°
2026-04-17 22:23 26.06911 -80.06976 7714 ft 386 kts 187°
2026-04-17 22:23 26.04249 -80.07328 7014 ft 382 kts 187°
2026-04-17 22:23 26.01623 -80.07674 6311 ft 378 kts 187°
2026-04-17 22:24 25.99062 -80.08012 5625 ft 373 kts 187°
2026-04-17 22:24 25.96496 -80.08348 4936 ft 369 kts 187°
2026-04-17 22:24 25.93964 -80.08641 4072 ft 365 kts 185°
2026-04-17 22:24 25.91446 -80.08855 3472 ft 359 kts 184°
2026-04-17 22:25 25.88988 -80.09018 3384 ft 343 kts 183°
2026-04-17 22:25 25.86683 -80.09157 3308 ft 321 kts 183°
2026-04-17 22:25 25.84524 -80.09285 3219 ft 301 kts 183°
2026-04-17 22:25 25.82497 -80.09515 3085 ft 284 kts 195°
2026-04-17 22:26 25.80825 -80.10539 2908 ft 270 kts 224°
2026-04-17 22:26 25.79855 -80.12250 2915 ft 262 kts 253°
2026-04-17 22:26 25.79567 -80.14247 2911 ft 262 kts 270°
2026-04-17 22:26 25.80011 -80.16176 2821 ft 260 kts 295°
2026-04-17 22:27 25.80665 -80.18023 2147 ft 256 kts 278°
2026-04-17 22:27 25.80738 -80.19893 1949 ft 235 kts 267°
2026-04-17 22:27 25.80653 -80.21672 1564 ft 225 kts 266°
2026-04-17 22:27 25.80575 -80.23302 1435 ft 195 kts 266°
2026-04-17 22:28 25.80511 -80.24796 1452 ft 200 kts 267°
2026-04-17 22:28 25.80446 -80.26350 1892 ft 201 kts 266°
2026-04-17 22:28 25.80382 -80.27906 2361 ft 203 kts 268°
2026-04-17 22:28 25.80506 -80.29468 2939 ft 204 kts 280°
2026-04-17 22:29 25.80824 -80.31010 3514 ft 206 kts 283°
2026-04-17 22:29 25.81190 -80.32566 3861 ft 211 kts 284°
2026-04-17 22:29 25.81787 -80.34004 3914 ft 210 kts 312°
2026-04-17 22:29 25.83017 -80.34841 3923 ft 211 kts 345°
2026-04-17 22:30 25.84468 -80.35106 3924 ft 212 kts 353°
2026-04-17 22:30 25.85934 -80.35238 3849 ft 210 kts
2026-04-17 22:30 25.87296 -80.34738 3564 ft 209 kts 39°
2026-04-17 22:30 25.88119 -80.33452 3269 ft 207 kts 74°
2026-04-17 22:31 25.88399 -80.31881 2985 ft 207 kts 83°
2026-04-17 22:31 25.88565 -80.30293 2910 ft 207 kts 84°
2026-04-17 22:31 25.88716 -80.28697 2917 ft 208 kts 84°
2026-04-17 22:31 25.88864 -80.27114 2919 ft 208 kts 84°
2026-04-17 22:32 25.89013 -80.25513 2919 ft 208 kts 84°
2026-04-17 22:32 25.89162 -80.23912 2919 ft 208 kts 84°
2026-04-17 22:32 25.89312 -80.22305 2919 ft 208 kts 84°
2026-04-17 22:32 25.89461 -80.20702 2919 ft 208 kts 84°
2026-04-17 22:33 25.89611 -80.19102 2918 ft 208 kts 84°
2026-04-17 22:33 25.89760 -80.17501 2918 ft 208 kts 84°
2026-04-17 22:33 25.89850 -80.15917 2912 ft 208 kts 97°
2026-04-17 22:33 25.89359 -80.14434 2912 ft 206 kts 130°
2026-04-17 22:34 25.88214 -80.13550 2803 ft 201 kts 164°
2026-04-17 22:34 25.86836 -80.13242 2517 ft 202 kts 173°
2026-04-17 22:34 25.85448 -80.13057 2427 ft 201 kts 174°
2026-04-17 22:34 25.84050 -80.12888 2424 ft 203 kts 174°
2026-04-17 22:35 25.82649 -80.12910 2412 ft 201 kts 199°
2026-04-17 22:35 25.81524 -80.13781 2403 ft 199 kts 235°
2026-04-17 22:35 25.81038 -80.15201 2166 ft 198 kts 258°
2026-04-17 22:35 25.80807 -80.16666 1904 ft 191 kts 264°
2026-04-17 22:36 25.80760 -80.18110 1646 ft 182 kts 270°
2026-04-17 22:36 25.80764 -80.19427 1604 ft 157 kts 267°
2026-04-17 22:36 25.80692 -80.20590 1527 ft 148 kts 265°
2026-04-17 22:36 25.80604 -80.21714 1186 ft 146 kts 266°
2026-04-17 22:37 25.80584 -80.22820 915 ft 142 kts 269°
2026-04-17 22:37 25.80554 -80.23905 739 ft 140 kts 266°
2026-04-17 22:37 25.80501 -80.24981 533 ft 139 kts 266°
2026-04-17 22:37 25.80460 -80.26052 356 ft 138 kts 267°
2026-04-17 22:38 25.80432 -80.26759 233 ft 138 kts 266°
2026-04-17 22:38 25.80374 -80.28154 20 ft 128 kts 266°
2026-04-17 22:38 25.80339 -80.28984 16 ft 83 kts 268°
2026-04-17 22:38 25.80319 -80.29466 16 ft 47 kts 267°
2026-04-17 22:39 25.80282 -80.29682 14 ft 27 kts 245°
2026-04-17 22:39 25.80377 -80.28064 21 ft 130 kts 266°
2026-04-17 22:39 25.80368 -80.28280 18 ft 124 kts 267°
2026-04-17 22:40 25.80336 -80.29066 16 ft 77 kts 268°
2026-04-17 22:40 0.00000 0.00000 1114 ft 1 kts 355°